[[{"header":{"parameterUnit":"m.s-1","parameterCategory":1,"la1":30.2991,"la2":30.254,"lo1":-89.0895,"lo2":-89.0444,"dy":0.0017,"dx":0.0017,"nx":28,"ny":28,"refTime":"2024-08-19T21:00:00:Z","depth":0,"parameterNumber":2,"parameterNumberName":"U-component_of_WINDS"},"data":[0,0,0,0,0,0,0,0,0,0,0,0,0,0,0,0,0,0,0,0,0,0,0,0,0,0,0,0,0,0,0,0,0,0,0,0,0,0,0,0,0,0,0,0,0,0,0,0,0,0,0,0,0,0,0,0,0,0,-1.2707,-1.2708,0,-1.2766,-1.2767,-1.2768,-1.2691,-1.2689,-1.2686,-1.2683,-1.2748,-1.2752,-1.2757,0,0,0,0,0,0,0,0,0,0,0,0,0,-1.2532,-1.2535,-1.2707,-1.2708,-1.2709,-1.2766,-1.2767,-1.2768,-1.2692,-1.2689,-1.2685,-1.2682,-1.2747,-1.2752,-1.2757,0,0,0,0,0,0,0,0,0,0,0,0,0,-1.2601,-1.2537,-1.2707,-1.2678,-1.2675,-1.2766,-1.2767,-1.2768,-1.2693,-1.2688,-1.2684,-1.268,-1.2745,-1.2751,-1.2758,-1.2881,0,0,-1.2777,-1.278,0,0,0,0,0,0,0,0,-1.2597,-1.2608,-1.2681,-1.268,-1.2678,-1.2717,-1.2729,-1.2806,-1.2694,-1.2686,-1.2683,-1.2678,-1.2741,-1.2748,-1.2768,-1.2884,-1.2887,-1.2778,-1.2782,-1.2785,-1.2787,0,0,0,0,0,0,0,-1.2593,-1.2605,-1.2731,-1.2682,-1.268,-1.2662,-1.2668,-1.2743,-1.2737,-1.2687,-1.2681,-1.2689,-1.274,-1.2762,-1.2769,-1.2888,-1.2778,-1.2784,-1.2788,-1.279,-1.3109,-1.3113,0,0,0,0,0,0,-1.2591,-1.2601,-1.2729,-1.2732,-1.2626,-1.2669,-1.2675,-1.2709,-1.2736,-1.2736,-1.2693,-1.2685,-1.2753,-1.2762,-1.2771,-1.2919,-1.2785,-1.2791,-1.2794,-1.3104,-1.311,-1.3115,0,0,0,0,0,0,-1.2587,-1.2603,-1.2726,-1.2665,-1.268,-1.2676,-1.2715,-1.2712,-1.2735,-1.274,-1.2739,-1.2717,-1.275,-1.2762,-1.2854,-1.292,-1.2794,-1.28,-1.3099,-1.3106,-1.3112,-1.3215,0,0,0,0,0,0,-1.2583,-1.2602,-1.2648,-1.2667,-1.2683,-1.2808,-1.2719,-1.2716,-1.2745,-1.2737,-1.2762,-1.2763,-1.2748,-1.2845,-1.2861,-1.2927,-1.2805,-1.3093,-1.3102,-1.311,-1.3206,-1.3224,-1.324,0,0,0,0,0,-1.2577,-1.2676,-1.2651,-1.2667,-1.2741,-1.2812,-1.2821,-1.2801,-1.2751,-1.2798,-1.2802,-1.2762,-1.291,-1.2855,-1.2872,-1.2941,-1.3089,-1.31,-1.311,-1.3198,-1.3221,-1.324,0,0,0,0,0,0,-1.2667,-1.2677,-1.2651,-1.2758,-1.2784,-1.2799,-1.2858,-1.2826,-1.2868,-1.2858,-1.2832,-1.2839,-1.2937,-1.2948,-1.2887,-1.3062,-1.2991,-1.3006,-1.3052,-1.3074,-1.3091,-1.3088,-1.281,0,0,0,0,0,-1.2698,-1.2754,-1.2761,-1.2855,-1.2869,-1.2861,-1.2892,-1.2873,-1.29,-1.2912,-1.2922,-1.295,-1.3003,-1.3039,-1.3087,-1.3205,-1.3211,-1.3261,-1.3279,-1.3293,-1.3307,-1.3371,-1.3394,-1.3149,-1.3149,-1.3149,0,0,-1.2766,-1.2779,-1.2816,-1.2874,-1.2892,-1.2951,-1.2872,-1.2938,-1.2982,-1.2922,-1.301,-1.3018,-1.3048,-1.3154,-1.3201,-1.3166,-1.3375,-1.3306,-1.3317,-1.3323,-1.3384,-1.3407,-1.3428,-1.3156,-1.3155,-1.3153,0,0,-1.292,-1.2934,-1.3015,-1.3034,-1.3062,-1.3056,-1.3075,-1.3094,-1.3097,-1.3184,-1.3141,-1.3193,-1.3284,-1.3308,-1.3332,-1.3494,-1.3459,-1.351,-1.3602,-1.3665,-1.3685,-1.3702,-1.3761,-1.3783,-1.3523,-1.3523,-1.3523,0,-1.3001,-1.3087,-1.3061,-1.313,-1.3157,-1.3104,-1.3186,-1.3206,-1.325,-1.3271,-1.323,-1.3343,-1.3359,-1.3471,-1.351,-1.3531,-1.3553,-1.3509,-1.3684,-1.3701,-1.3716,-1.3773,-1.3795,-1.3529,-1.3529,-1.3528,-1.3527,0,-1.3186,-1.3247,-1.3309,-1.3351,-1.3385,-1.3461,-1.3446,-1.3484,-1.3463,-1.3461,-1.3551,-1.3568,-1.362,-1.3645,-1.3625,-1.3754,-1.3731,-1.3687,-1.3616,-1.3746,-1.3799,-1.382,-1.3538,-1.3536,-1.3534,-1.3533,0,0,-1.3401,-1.3426,-1.345,-1.3468,-1.3494,-1.3542,-1.3615,-1.3664,-1.3698,-1.3729,-1.3791,-1.3868,-1.3828,-1.3855,-1.3837,-1.3892,-1.4021,-1.3842,-1.3842,-1.3877,-1.4167,-1.4202,-1.4227,-1.3997,-1.4001,-1.4004,-1.4165,0,-1.3557,-1.3683,-1.366,-1.3783,-1.384,-1.3789,-1.3853,-1.3877,-1.3877,-1.3925,-1.3925,-1.3982,-1.3923,-1.3939,-1.3991,-1.3995,-1.408,-1.3982,-1.4057,-1.406,-1.4054,-1.4254,-1.4291,-1.4442,-1.4185,-1.4189,-1.4191,0,-1.3756,-1.3793,-1.3922,-1.3939,-1.3962,-1.402,-1.4063,-1.411,-1.4136,-1.4132,-1.4162,-1.4133,-1.4208,-1.4132,-1.4235,-1.417,-1.4198,-1.4205,-1.421,-1.4219,-1.4136,-1.4271,-1.4489,-1.4513,-1.4223,-1.422,-1.4218,0,-1.3902,-1.3985,-1.4072,-1.4089,-1.4111,-1.4153,-1.4165,-1.4186,-1.4217,-1.4255,-1.4276,-1.4322,-1.4349,-1.4386,-1.4371,-1.4317,-1.4478,-1.4401,-1.4478,-1.4479,-1.4517,-1.4515,-1.4746,-1.4531,-1.4531,-1.453,-1.453,0,-1.408,-1.4162,-1.4138,-1.4193,-1.4283,-1.4256,-1.4346,-1.4351,-1.437,-1.4426,-1.4384,-1.4437,-1.4413,-1.4464,-1.4453,-1.4541,-1.4553,-1.4553,-1.455,-1.4559,-1.4559,-1.4579,-1.457,-1.4536,-1.4535,-1.4534,-1.4533,0,-1.4261,-1.4248,-1.4341,-1.4353,-1.4358,-1.4424,-1.4435,-1.4487,-1.4482,-1.4553,-1.4568,-1.4562,-1.4621,-1.4609,-1.4674,-1.4666,-1.4777,-1.4759,-1.4769,-1.4765,-1.4844,-1.4838,-1.5099,-1.5132,-1.4893,-1.4895,-1.4897,0,-1.4376,-1.4438,-1.4456,-1.449,-1.4504,-1.4558,-1.4589,-1.4565,-1.4599,-1.4633,-1.4681,-1.4735,-1.4778,-1.4874,-1.4877,-1.4926,-1.4911,-1.4998,-1.4918,-1.4925,-1.4915,-1.4913,-1.492,-1.5016,-1.5018,-1.502,-1.5022,0,-1.4584,-1.4574,-1.462,-1.4665,-1.4702,-1.4736,-1.4766,-1.4796,-1.4774,-1.4815,-1.4874,-1.4907,-1.4972,-1.5027,-1.5073,-1.5085,-1.5052,-1.5047,-1.5068,-1.5079,-1.5083,-1.5084,-1.4815,-1.5042,-1.504,-1.5039,-1.5037,-1.5037,-1.4737,-1.479,-1.4811,-1.4864,-1.4883,-1.4912,-1.4961,-1.4962,-1.501,-1.5061,-1.5043,-1.5111,-1.5135,-1.5193,-1.521,-1.5264,-1.5231,-1.5261,-1.5269,-1.5278,-1.5288,-1.5072,-1.5272,-1.5271,-1.527,-1.527,-1.5269,0,-1.4945,-1.4955,-1.5004,-1.5046,-1.5088,-1.5049,-1.508,-1.5118,-1.5178,-1.5203,-1.5245,-1.5313,-1.5366,-1.5372,-1.5422,-1.5464,-1.545,-1.5478,-1.5476,-1.548,-1.5313,-1.5291,-1.5489,-1.5489,-1.5489,-1.5489,-1.5489,-1.5489,-1.5058,-1.5145,-1.5138,-1.5234,-1.5244,-1.5309,-1.533,-1.5357,-1.5377,-1.5454,-1.5498,-1.55,-1.5518,-1.5569,-1.5616,-1.5617,-1.5638,-1.5674,-1.5669,-1.5514,-1.5492,-1.5471,-1.545,-1.5678,-1.5678,-1.5831,-1.5832,-1.5834]},{"header":{"parameterUnit":"m.s-1","parameterCategory":1,"la1":30.2991,"la2":30.254,"lo1":-89.0895,"lo2":-89.0444,"dy":0.0017,"dx":0.0017,"nx":28,"ny":28,"refTime":"2024-08-19T21:00:00:Z","depth":0,"parameterNumber":3,"parameterNumberName":"V-component_of_WINDS"},"data":[0,0,0,0,0,0,0,0,0,0,0,0,0,0,0,0,0,0,0,0,0,0,0,0,0,0,0,0,0,0,0,0,0,0,0,0,0,0,0,0,0,0,0,0,0,0,0,0,0,0,0,0,0,0,0,0,0,0,-3.7837,-3.7837,0,-3.7892,-3.7892,-3.7893,-3.7832,-3.783,-3.7827,-3.7825,-3.7879,-3.7882,-3.7886,0,0,0,0,0,0,0,0,0,0,0,0,0,-3.7675,-3.7679,-3.7836,-3.7837,-3.7838,-3.7891,-3.7892,-3.7893,-3.7832,-3.783,-3.7827,-3.7824,-3.7877,-3.7882,-3.7886,0,0,0,0,0,0,0,0,0,0,0,0,0,-3.7739,-3.768,-3.7836,-3.7814,-3.7813,-3.7891,-3.7892,-3.7893,-3.7833,-3.783,-3.7826,-3.7823,-3.7876,-3.7881,-3.7886,-3.7988,0,0,-3.7903,-3.7905,0,0,0,0,0,0,0,0,-3.7736,-3.7745,-3.7817,-3.7816,-3.7814,-3.7851,-3.7855,-3.7925,-3.7834,-3.7825,-3.7825,-3.7821,-3.7872,-3.7878,-3.7895,-3.7991,-3.7993,-3.7903,-3.7906,-3.7909,-3.791,0,0,0,0,0,0,0,-3.7731,-3.7742,-3.7858,-3.7818,-3.7816,-3.78,-3.7806,-3.7868,-3.7867,-3.7826,-3.7822,-3.7829,-3.7871,-3.789,-3.7896,-3.7994,-3.7903,-3.7908,-3.7911,-3.7913,-3.8175,-3.8178,0,0,0,0,0,0,-3.773,-3.7739,-3.7856,-3.786,-3.7766,-3.7806,-3.7812,-3.7843,-3.7866,-3.7867,-3.7832,-3.7826,-3.7883,-3.789,-3.7898,-3.8018,-3.7909,-3.7914,-3.7917,-3.8171,-3.8175,-3.8179,0,0,0,0,0,0,-3.7727,-3.7741,-3.7854,-3.7798,-3.7812,-3.7812,-3.7848,-3.7846,-3.7865,-3.7871,-3.787,-3.7852,-3.788,-3.789,-3.7966,-3.8019,-3.7916,-3.7921,-3.8166,-3.8172,-3.8177,-3.826,0,0,0,0,0,0,-3.7722,-3.774,-3.778,-3.78,-3.7815,-3.7923,-3.7851,-3.7849,-3.7875,-3.7868,-3.789,-3.789,-3.7879,-3.7959,-3.7972,-3.8024,-3.7925,-3.8162,-3.8169,-3.8176,-3.8252,-3.8267,-3.828,0,0,0,0,0,-3.7717,-3.78,-3.7782,-3.7797,-3.7865,-3.7926,-3.7935,-3.792,-3.788,-3.7919,-3.7922,-3.789,-3.8011,-3.7967,-3.7981,-3.8036,-3.8158,-3.8167,-3.8175,-3.8246,-3.8264,-3.828,0,0,0,0,0,0,-3.7786,-3.7803,-3.7783,-3.7875,-3.79,-3.7916,-3.7965,-3.7941,-3.7976,-3.7968,-3.7948,-3.7953,-3.8034,-3.8042,-3.7993,-3.8136,-3.8078,-3.809,-3.8127,-3.8145,-3.8158,-3.8154,-3.793,0,0,0,0,0,-3.7812,-3.7862,-3.7873,-3.7954,-3.7967,-3.7964,-3.7991,-3.7978,-3.8002,-3.8011,-3.802,-3.8044,-3.8087,-3.8117,-3.8157,-3.8253,-3.8256,-3.8298,-3.8312,-3.8324,-3.8334,-3.8384,-3.8403,-3.8207,-3.8207,-3.8207,0,0,-3.7866,-3.7881,-3.7914,-3.7968,-3.7986,-3.8036,-3.7973,-3.803,-3.8067,-3.802,-3.8092,-3.81,-3.8125,-3.8211,-3.825,-3.8221,-3.8389,-3.8334,-3.8344,-3.8347,-3.8395,-3.8413,-3.843,-3.8213,-3.8212,-3.8211,0,0,-3.7991,-3.8008,-3.8077,-3.8096,-3.8123,-3.8121,-3.8137,-3.8157,-3.816,-3.8233,-3.8198,-3.8241,-3.8317,-3.8336,-3.8355,-3.8487,-3.8458,-3.85,-3.8574,-3.8623,-3.8639,-3.8652,-3.8698,-3.8715,-3.8511,-3.8511,-3.8511,0,-3.8054,-3.8131,-3.8115,-3.8174,-3.8198,-3.8159,-3.8227,-3.8246,-3.8285,-3.8302,-3.827,-3.8363,-3.8377,-3.8467,-3.8499,-3.8517,-3.8534,-3.8498,-3.8638,-3.8651,-3.8664,-3.8707,-3.8725,-3.8516,-3.8515,-3.8515,-3.8514,0,-3.8207,-3.826,-3.8312,-3.8352,-3.8382,-3.8446,-3.8438,-3.8471,-3.8455,-3.8455,-3.8529,-3.8544,-3.8587,-3.8607,-3.8592,-3.8695,-3.8676,-3.8641,-3.8583,-3.8688,-3.8728,-3.8745,-3.8523,-3.8521,-3.852,-3.8518,0,0,-3.8377,-3.8407,-3.8426,-3.8443,-3.8471,-3.8511,-3.8572,-3.8614,-3.8642,-3.867,-3.872,-3.8784,-3.8752,-3.8775,-3.8761,-3.8805,-3.8906,-3.8764,-3.8764,-3.8789,-3.902,-3.9045,-3.9065,-3.8887,-3.8891,-3.8893,-3.9017,0,-3.8501,-3.8609,-3.8596,-3.8698,-3.8747,-3.8709,-3.8762,-3.8784,-3.8786,-3.8826,-3.8827,-3.8873,-3.8828,-3.8841,-3.8883,-3.8885,-3.8952,-3.8876,-3.8932,-3.8935,-3.8927,-3.9086,-3.9114,-3.923,-3.9033,-3.9036,-3.9038,0,-3.8661,-3.8696,-3.8803,-3.8823,-3.8842,-3.8891,-3.8928,-3.8967,-3.8991,-3.8989,-3.9014,-3.8992,-3.9052,-3.8993,-3.9074,-3.9023,-3.9045,-3.905,-3.9054,-3.9058,-3.8992,-3.9094,-3.9267,-3.9284,-3.9063,-3.9061,-3.9059,0,-3.8773,-3.8847,-3.892,-3.8936,-3.8961,-3.8995,-3.9007,-3.9027,-3.9053,-3.9085,-3.9101,-3.914,-3.9161,-3.9191,-3.9179,-3.9138,-3.9263,-3.9203,-3.9262,-3.9262,-3.9289,-3.9288,-3.9468,-3.9305,-3.9305,-3.9305,-3.9304,0,-3.8914,-3.8981,-3.8971,-3.9016,-3.9089,-3.9074,-3.9146,-3.9153,-3.9171,-3.9216,-3.9185,-3.9228,-3.9211,-3.9252,-3.9243,-3.9311,-3.9321,-3.932,-3.9317,-3.9323,-3.9323,-3.9337,-3.9328,-3.9309,-3.9308,-3.9307,-3.9306,0,-3.9051,-3.9048,-3.9125,-3.9142,-3.9148,-3.9201,-3.9215,-3.9256,-3.9256,-3.9313,-3.9325,-3.9324,-3.937,-3.9362,-3.9414,-3.9408,-3.9493,-3.948,-3.9485,-3.9482,-3.9541,-3.9535,-3.9735,-3.976,-3.9583,-3.9584,-3.9586,0,-3.9141,-3.9191,-3.9214,-3.9242,-3.9257,-3.9303,-3.9329,-3.9315,-3.9344,-3.9374,-3.9411,-3.9455,-3.949,-3.9566,-3.9568,-3.9607,-3.9595,-3.9662,-3.96,-3.9604,-3.9595,-3.9591,-3.9596,-3.9674,-3.9676,-3.9678,-3.9679,0,-3.93,-3.9295,-3.9335,-3.9375,-3.9408,-3.9438,-3.9465,-3.9489,-3.9477,-3.9511,-3.9559,-3.9585,-3.9638,-3.9682,-3.9718,-3.9728,-3.9701,-3.9699,-3.9714,-3.972,-3.9721,-3.972,-3.9518,-3.9694,-3.9693,-3.9691,-3.9691,-3.969,-3.9415,-3.9458,-3.9481,-3.9526,-3.9545,-3.9571,-3.9611,-3.9615,-3.9655,-3.9698,-3.9687,-3.974,-3.9761,-3.9807,-3.9821,-3.9862,-3.9837,-3.986,-3.9865,-3.9871,-3.9878,-3.9715,-3.9869,-3.9868,-3.9868,-3.9868,-3.9867,0,-3.9572,-3.9585,-3.9627,-3.9666,-3.9701,-3.9674,-3.9702,-3.9733,-3.9782,-3.9804,-3.9838,-3.9893,-3.9935,-3.9941,-3.998,-4.0012,-4.0,-4.0022,-4.0019,-4.0022,-3.9898,-3.9881,-4.0031,-4.0031,-4.0031,-4.0031,-4.0031,-4.0031,-3.9658,-3.9729,-3.9727,-3.9807,-3.9818,-3.9872,-3.989,-3.9913,-3.9931,-3.9993,-4.0028,-4.0032,-4.0047,-4.0088,-4.0124,-4.0125,-4.014,-4.0167,-4.0163,-4.0047,-4.0031,-4.0015,-3.9999,-4.0171,-4.0171,-4.0283,-4.0284,-4.0285]}]]